Weather History for EGXE - December, 2012

Change the Weather History Date:

Saturday, December 15, 2012

  Actual Average (EGNV) Record (EGNV)
Temperature  
Mean Temperature 44 °F -  
Max Temperature 47 °F 44 °F 55 °F (2013)
Min Temperature 41 °F 34 °F 28 °F (2000)
Degree Days  
Heating Degree Days 21    
Moisture  
Dew Point 41 °F    
Average Humidity 85    
Maximum Humidity 93    
Minimum Humidity 76    
Precipitation  
Precipitation 0.01 in 0.07 in - ()
Sea Level Pressure  
Sea Level Pressure 29.10 in    
Wind  
Wind Speed 12 mph ()    
Max Wind Speed 23 mph    
Max Gust Speed 36 mph    
Visibility 6.7 miles    
Events Rain    
Averages and records for this station are not official NWS values.
T = Trace of Precipitation, MM = Missing Value Source: Averaged Metar Reports

Daily Weather History Graph

Daily Weather History Graph

Search for Another Location

Airport or City:

Trip Planner

Search our weather history database for the weather conditions in past years. The results will help you decide how hot, cold, wet, or windy it might be!

Date:

Astronomy

Dec. 15, 2012 Rise Set
Actual Time 8:20 AM GMT 3:41 PM GMT
Civil Twilight 7:36 AM GMT 4:26 PM GMT
Nautical Twilight 6:50 AM GMT 5:12 PM GMT
Astronomical Twilight 6:06 AM GMT 5:56 PM GMT
Moon 9:46 AM GMT (12/15) 6:47 PM GMT (12/15)
Length of Visible Light 8h 49m
Length of Day
7h 21m
Waxing Crescent, 7% of the Moon is Illuminated
Dec 15
Waxing Crescent
Dec 20
First Quarter
Dec 28
Full
Jan 5
Last Quarter
Jan 11
New

Hourly Weather History & Observations

Time (GMT) Temp. Windchill Dew Point Humidity Pressure Visibility Wind Dir Wind Speed Gust Speed Precip Events Conditions
12:50 AM 46.4 °F 38.3 °F 39.2 °F 76% 28.77 in 6.2 mi WSW 23.0 mph 35.7 mph N/A   Mostly Cloudy
3:50 AM 44.6 °F 37.2 °F 39.2 °F 81% 28.85 in 6.2 mi WSW 17.3 mph - N/A   Scattered Clouds
4:50 AM 44.6 °F 38.1 °F 39.2 °F 81% 28.88 in 6.2 mi SW 13.8 mph - N/A   Scattered Clouds
5:50 AM 44 °F - 40 °F 79% 28.92 in 12 mi SW 15.0 mph - - Rain Light Rain Showers
6:50 AM 44.6 °F 38.4 °F 39.2 °F 81% 28.94 in 6.2 mi SSW 12.7 mph - N/A   Scattered Clouds
7:50 AM 42.8 °F 35.1 °F 39.2 °F 87% 28.97 in 6.2 mi South 16.1 mph - N/A   Partly Cloudy
8:50 AM 43 °F - 39 °F 80% 29.01 in 11 mi South 15.0 mph - -   Scattered Clouds
8:50 AM 42.8 °F 35.4 °F 39.2 °F 87% 29.00 in 6.2 mi South 15.0 mph - N/A   Scattered Clouds
9:50 AM 42.8 °F 36.2 °F 41.0 °F 93% 29.03 in 6.2 mi South 12.7 mph - N/A   Mostly Cloudy
10:50 AM 44.6 °F 39.2 °F 41.0 °F 87% 29.06 in 6.2 mi SSE 10.4 mph - N/A Rain Light Rain Showers
11:50 AM 47 °F - 42 °F 79% 29.07 in 11 mi South 10.4 mph - - Rain Rain
11:50 AM 46.4 °F 41.5 °F 42.8 °F 87% 29.06 in 6.2 mi South 10.4 mph - N/A   Mostly Cloudy
12:50 PM 48.2 °F - 41.0 °F 76% 29.06 in 6.2 mi SSW 13.8 mph - N/A   Scattered Clouds
1:50 PM 46.4 °F 39.8 °F 42.8 °F 87% 29.09 in 6.2 mi SSW 16.1 mph - N/A   Scattered Clouds
2:50 PM 47 °F - 42 °F 77% 29.12 in 12 mi South 11.5 mph - -   Partly Cloudy
2:50 PM 46.4 °F 41.1 °F 42.8 °F 87% 29.12 in 6.2 mi South 11.5 mph - N/A   Scattered Clouds
3:50 PM 46.4 °F 42.4 °F 42.8 °F 87% 29.15 in 6.2 mi South 8.1 mph - N/A   Mostly Cloudy
5:50 PM 43 °F - 41 °F 92% 29.20 in 6 mi South 11.5 mph - - Rain Rain
5:50 PM 42.8 °F 36.6 °F 41.0 °F 93% 29.18 in 5.6 mi South 11.5 mph - N/A   Haze
6:50 PM 44.6 °F 39.7 °F 42.8 °F 93% 29.21 in 6.2 mi SSW 9.2 mph - N/A Rain Light Rain Showers
7:50 PM 44.6 °F 39.7 °F 41.0 °F 87% 29.24 in 6.2 mi SSE 9.2 mph - N/A Rain Light Rain Showers
8:50 PM 44 °F - 41 °F 85% 29.26 in 6 mi South 12.7 mph - - Rain Rain
8:50 PM 44.6 °F 38.4 °F 41.0 °F 87% 29.24 in 5.6 mi South 12.7 mph - N/A   Haze
9:50 PM 44.6 °F 38.8 °F 41.0 °F 87% 29.27 in 6.2 mi SSW 11.5 mph - N/A   Scattered Clouds
10:50 PM 42.8 °F 39.3 °F 39.2 °F 87% 29.30 in 5.0 mi SSW 5.8 mph - N/A   Haze
11:50 PM 41 °F - 39 °F 91% 29.32 in 4 mi East 8.1 mph - -   Mist
11:50 PM 41.0 °F 35.8 °F 39.2 °F 93% 29.30 in 4.3 mi East 8.1 mph - N/A   Haze